Weather Service Report


664 
ASUS45 KTFX 300310
RWRMT 
MONTANA REGIONAL WEATHER ROUNDUP
NATIONAL WEATHER SERVICE GREAT FALLS MT
900 PM MDT MON JUN 29 2015

NOTE: "FAIR" INDICATES FEW OR NO CLOUDS BELOW 12000 FEET WITH NO
SIGNIFICANT WEATHER AND/OR OBSTRUCTIONS TO VISIBILITY.

MTZ001>007-043-300400-
WEST OF THE DIVIDE
  
CITY           SKY/WX    TMP DP  RH WIND       PRES   REMARKS
KALISPELL      PTCLDY    84  59  42 CALM      29.93F                  
MISSOULA       MOCLDY    88  49  25 N13G23    29.95R                  
BUTTE          LGT RAIN  69  56  62 E5        30.18F                  
MULLAN PASS    PTCLDY    69  54  58 S6        30.18F                  
DEER LODGE       N/A     66  61  82 W5        30.19F                  
EUREKA           N/A     77  63  61 SE3       29.91F                  
HAMILTON         N/A     70  63  78 S8        30.03R                  
RONAN            N/A     81  61  50 NW3       30.00F                  
$$

MTZ008-052>055-300400-
SOUTHWEST MONTANA
  
CITY           SKY/WX    TMP DP  RH WIND       PRES   REMARKS
BOZEMAN        CLOUDY    73  54  51 SW10      30.12R                  
DILLON         CLOUDY    71  56  58 CALM      30.19R                  
W YELLOWSTONE  LGT RAIN  64  50  59 NW7       30.33F                  
THREE FORKS      N/A     73  66  78 CALM      30.11S                  
TWIN BRIDGES     N/A     73  51  45 E13       30.13R                  
$$

MTZ009-010-012-014-046-048-049-054-300400-
EAST SLOPES AND CENTRAL MONTANA
  
CITY           SKY/WX    TMP DP  RH WIND       PRES   REMARKS
GREAT FALLS    MOCLDY    86  48  26 E8        29.97S                  
MALMSTROM AFB  MOCLDY    83  51  32 NE8       29.96S                  
HELENA         LGT RAIN  73  62  68 W7G17     30.11R                  
$$

MTZ011-013-016-021-045-047-050-051-300400-
NORTH CENTRAL MONTANA
  
CITY           SKY/WX    TMP DP  RH WIND       PRES   REMARKS
HAVRE          CLEAR     84  52  33 E18G28    29.92R                  
CHINOOK          N/A     82  52  34 E15G21    29.93R                  
FORT BENTON      N/A     86  52  30 NE3       29.92R                  
$$

MTZ017>020-022>027-061-062-300400-
NORTHEAST MONTANA
  
CITY           SKY/WX    TMP DP  RH WIND       PRES   REMARKS
JORDAN           N/A     86  49  27 NE9       29.96R                  
SIDNEY         MOCLDY    81  57  44 N7        29.95R                  
WOLF POINT     HAZE      80  46  30 E12       29.97R VSB 3/4          
MALTA            N/A     82  48  30 NE12      29.92S                  
PLENTYWOOD       N/A     72  50  46 N15       29.99R                  
POPLAR           N/A     77  46  33 N10G17    29.98R                  
$$

MTZ028>42-056>058-300400-
SOUTHCENTRAL AND SOUTHEAST MONTANA
  
CITY           SKY/WX    TMP DP  RH WIND       PRES   REMARKS
BAKER          MOCLDY    78  57  48 N5        29.99R                  
LIVINGSTON     MOCLDY    67 N/A N/A SE6       30.15F                  
MILES CITY     PTCLDY    85  43  22 NE9       29.94S                  
BIG TIMBER       N/A     64  61  88 N6        30.18F                  
FORSYTH          N/A     84  46  26 E3        29.94S                  
LAUREL           N/A     77  55  46 W25       30.07R                  
ROUNDUP          N/A     73  60  63 W24       30.00R                  
$$

REGIONAL REPORTS...DAKOTAS
  
CITY           SKY/WX    TMP DP  RH WIND       PRES   REMARKS
WILLISTON      CLOUDY    78  53  41 N15       29.96R HAZE             
MINOT          CLOUDY    74  65  73 E6        29.91R                  
DICKINSON      MOCLDY    74  67  78 E7        29.91R                  
BEACH          FAIR      70  59  68 N7        29.98R                  
CROSBY         FAIR      68  55  64 N15G23    29.98S HAZE             
BISMARCK       PTCLDY    75  65  70 E8        29.90R                  
GRAND FORKS    CLOUDY    62  60  93 N3        29.91R                  
FARGO          PTCLDY    67  62  84 N7        29.89R                  
BUFFALO SD       N/A     81  65  58 W6        29.92R                  
RAPID CITY     CLEAR     75  63  66 SW3       30.02S                  
$$

REGIONAL REPORTS...WYOMING/IDAHO/WASHINGTON
  
CITY           SKY/WX    TMP DP  RH WIND       PRES   REMARKS
GILLETTE       CLEAR     70  57  63 CALM      30.10S                  
SHERIDAN       MOCLDY    73  59  61 S5        30.06R                  
BUFFALO WY     PTCLDY    74  51  44 W8        30.15S                  
CODY           CLOUDY    82  43  24 NW8       30.13R                  
YELLOWSTONE LA   N/A     64  46  52 W8        30.44R                  
IDAHO FALLS    CLOUDY    80  52  37 E18G26    30.10S                  
SALMON         MOCLDY    75  57  53 W8        30.04R                  
BOISE          PTCLDY    94  54  25 CALM      29.88R HX  92           
SPOKANE        PTCLDY    91  53  27 SW12      29.90S                  
$$

REGIONAL REPORTS...ALBERTA
  
CITY           SKY/WX    TMP DP  RH WIND       PRES   REMARKS
EDMONTON       MOCLDY    64  55  72 S9        29.99F                  
CALGARY        PTCLDY    70  57  64 SE9       30.00F                  
LETHBRIDGE     PTCLDY    68  63  83 SE8       29.98S                  
MEDICINE HAT     N/A     79  41  25 NE15G25   29.94S SMOKE            
WATERTON GATE    N/A     68  61  77 CALM        N/A                   
CARDSTON         N/A     68  63  83 S2          N/A                   
MILK RIVER       N/A     75  55  50 N22G28      N/A                   
$$

REGIONAL REPORTS...SASKATCHEWAN
  
CITY           SKY/WX    TMP DP  RH WIND       PRES   REMARKS
SWIFT CURRENT  HAZE      70  50  49 E9        30.03F VSB 3/8          
REGINA         CLOUDY    68  54  60 N8        30.00F SMOKE            
SASKATOON      SMOKE     66  57  72 W5        30.03S VSB 1            
CYPRESS HILLS    N/A     68  39  34 SE12G18     N/A                   
VAL MARIE        N/A     73  41  31 E16         N/A                   
ROCKGLEN         N/A     68  46  45 N5          N/A                   
ASSINIBOIA       N/A     64  61  88 SW5         N/A                   
$$

Return to Home page


Western Regional Climate Center, wrcc@dri.edu